Location: Fort Lauderdale
(26.1220°N, 80.1440°W)
Time: 21:09:44
(UTC-04:00)

OTV 5 (USA 277) - Visible Passes

Search period start: 24 March 2019 00:00
Search period end: 03 April 2019 00:00
Orbit: 315 x 320 km, 54.5° (Epoch: 14 March)

Date Brightness Start Highest point End Pass type
(mag) Time Alt. Az. Time Alt. Az. Time Alt. Az.
28 Mar ? 06:26:50 10° SSW 06:29:21 36° SE 06:31:53 10° NE visible
29 Mar ? 06:41:25 10° WSW 06:44:00 41° NW 06:46:35 10° NNE visible
30 Mar ? 05:25:28 16° E 05:25:28 16° E 05:26:31 10° ENE visible
31 Mar ? 05:40:17 30° NE 05:40:17 30° NE 05:41:49 10° NE visible
01 Apr ? 05:54:56 17° NNW 05:54:56 17° NNW 05:56:00 10° N visible
